This is the latest recevied weather packets stored in our database for station/object W1GK. If no packets are shown the sender has not sent any weather packets the latest 10 day(s).
| Time | Temp. | Humidity | Pressure | Rain* | Wind** | Luminosity | Snow |
|---|---|---|---|---|---|---|---|
| 1787765397 | 37.78° C | 16% | 1016.6 hPa | 0 mm | - | 701 W/m² | - |
| 1787764798 | 37.22° C | 16% | 1016.6 hPa | 0 mm | - | 680 W/m² | - |
| 1787764196 | 37.22° C | 16% | 1016.5 hPa | 0 mm | - | 661 W/m² | - |
| 1787763596 | 37.22° C | 16% | 1016.6 hPa | 0 mm | - | 636 W/m² | - |
| 1787762997 | 36.67° C | 17% | 1016.6 hPa | 0 mm | - | 613 W/m² | - |
| 1787762397 | 36.67° C | 17% | 1016.6 hPa | 0 mm | - | 591 W/m² | - |
| 1787761798 | 36.67° C | 17% | 1016.5 hPa | 0 mm | - | 564 W/m² | - |
| 1787761196 | 36.11° C | 17% | 1016.5 hPa | 0 mm | - | 540 W/m² | - |
| 1787760597 | 35.56° C | 17% | 1016.5 hPa | 0 mm | - | 512 W/m² | - |
| 1787759997 | 35.56° C | 18% | 1016.4 hPa | 0 mm | - | 482 W/m² | - |
| 1787759396 | 34.44° C | 19% | 1016.4 hPa | 0 mm | - | 454 W/m² | - |
| 1787758797 | 33.89° C | 21% | 1016.4 hPa | 0 mm | - | 424 W/m² | - |
| 1787758197 | 33.33° C | 24% | 1016.3 hPa | 0 mm | - | 394 W/m² | - |
| 1787757597 | 32.78° C | 25% | 1016.3 hPa | 0 mm | - | 362 W/m² | - |
| 1787756996 | 32.22° C | 25% | 1016.3 hPa | 0 mm | - | 329 W/m² | - |
| 1787756399 | 31.67° C | 25% | 1016.2 hPa | 0 mm | - | 301 W/m² | - |
| 1787755796 | 31.11° C | 26% | 1016.2 hPa | 0 mm | - | 267 W/m² | - |
| 1787755197 | 31.11° C | 26% | 1016.1 hPa | 0 mm | - | 236 W/m² | - |
| 1787754597 | 30.56° C | 22% | 1016 hPa | 0 mm | - | 206 W/m² | - |
| 1787753997 | 30° C | 23% | 1015.9 hPa | 0 mm | - | 174 W/m² | - |
| 1787753398 | 29.44° C | 23% | 1015.8 hPa | 0 mm | - | 144 W/m² | - |
| 1787752798 | 28.89° C | 24% | 1015.7 hPa | 0 mm | - | 114 W/m² | - |
| 1787752196 | 28.33° C | 24% | 1015.6 hPa | 0 mm | - | 84 W/m² | - |
| 1787751596 | 28.33° C | 24% | 1015.5 hPa | 0 mm | - | 18 W/m² | - |
| 1787750996 | 28.33° C | 24% | 1015.4 hPa | 0 mm | - | 14 W/m² | - |
* Rain latest hour (hover to see other rain measurements)
** Current wind speed in m/s (hover to see current wind gust speed)